Regional Weather Roundup
Issued by NWS New Orleans/Baton Rouge, LA

Home | Current Version | Previous Version | Graphics & Text | Print | Product List | Glossary On
Versions: 1 2 3 4 5 6 7 8 9 10 11 12 13 14 15 16 17 18 19 20 21 22 23 24 25 26 27 28 29 30 31 32 33 34 35 36 37 38 39 40 41 42 43 44 45 46 47 48 49 50
623
ASUS44 KLIX 291901
RWRLIX
NEW ORLEANS REGIONAL WEATHER ROUNDUP
NATIONAL WEATHER SERVICE NEW ORLEANS LA
200 PM CDT TUE JUL 29 2014

NOTE: "FAIR" INDICATES FEW OR NO CLOUDS BELOW 12,000 FEET WITH NO
      SIGNIFICANT WEATHER AND/OR OBSTRUCTIONS TO VISIBILITY.
      SKY/WX - SKY CONDITION AND SIGNIFICANT WEATHER.
      TMP - AIR TEMPERATURE.     DP    - DEWPOINT TEMPERATURE.
      RH  - RELATIVE HUMIDITY.   PRES  - PRESSURE.
      HI  - HEAT INDEX.          WCI   - WIND CHILL INDEX.

*  THESE STATIONS ARE NOT NWS OR FAA STATIONS AND ARE NOT UNDER
   NWS QUALITY CONTROL.

LAZ038-040-048-061>063-065>067-069-292000-
SOUTHEAST LOUISIANA

CITY           SKY/WX    TMP DP  RH WIND       PRES   REMARKS
N.O. AUDUBON     N/A     90  67  46 MISG        N/A
N.O. INTL ARPT PTSUNNY   89  66  46 VRB6      30.05F
N.O. LAKEFRONT PTSUNNY   86  66  51 N5        30.06F
N.O. DOWNTOWN*   N/A     88  63  42 N6        30.05F
SLIDELL        PTSUNNY   87  65  47 VRB7      30.04F
BATON ROUGE    MOSUNNY   87  66  49 VRB3      30.06F
BOOTHVILLE     PTSUNNY   85  70  60 VRB6      30.05F
BELLE CHASSE   PTSUNNY   86  66  51 NE5       30.04F
BOGALUSA*        N/A     87  63  45 NW6       30.06F
GALLIANO*      NOT AVBL
NEW ROADS*       N/A     85  66  51 N6        30.06F
GONZALES*      MOCLDY    85  68  55 CALM      30.05F
HAMMOND*       MOSUNNY   90  61  37 N8        30.07F
HOUMA*         PTSUNNY   88  64  45 N6        30.04
PORT FOURCHON* CLEAR     88  70  55 NE6       30.05F

$$

MSZ070-080>082-292000-
SOUTHERN MISSISSIPPI

CITY           SKY/WX    TMP DP  RH WIND       PRES   REMARKS
MCCOMB         MOSUNNY   85  61  44 CALM      30.07F
GULFPORT       PTSUNNY   90  63  40 N7        30.02F
BILOXI         MOSUNNY   88  63  43 NE10      30.03F
PASCAGOULA     PTSUNNY   88  65  46 VRB3      30.02F
STENNIS ARPT*  MOSUNNY  N/A N/A N/A VRB5      30.04F

$$

COASTAL OBSERVATIONS
LAKE AND NEARSHORE STATIONS

STATION/POSITION TIME  TEMP    WIND        PRES    WAVE
                       AIR SEA DIR/SP/G            HT/PER
                 (UTC) (F)     (DEG/KT/KT) (MB)    (FT/S)
PASCAGOULA       1800   88     350/  5/ 10 1016.5
WAVELAND YACHT   1800   84     360/  7/ 10 1016.7
GRAND ISLE       1800   86 86   10/  3/  5 1018.1
SOUTHWEST PASS   1800   90 85   10/  4/  5 1017.5
NEW CANAL        1800   82 84   10/  6/  8 1018.3
SHELL BEACH      1800   81 81  360/  7/  9 1017.5

OFFSHORE STATIONS

STATION/POSITION TIME  TEMP    WIND        PRES    WAVE
                       AIR SEA DIR/SP/G            HT/PER
                 (UTC) (F)     (DEG/KT/KT) (MB)    (FT/S)
64 S DAUPHIN ISL 1842   82 87   10/ 12/ 14 1016.6

$$




USA.gov is the U.S. government's official web portal to all federal, state and local government web resources and services.